DW5977 Weather Reports


Display with metric or nautical units.
time (UTC)temp
F
wind
direction
speed
MPH
gust
MPH
rain 1hr
in
rain 24hr
in
rain mn
in
humidity
%
barometer
mb
20260902230503 79 219 3.0 9.0 0.00 0.00 0.00 82 1012.6
20260902230004 79 231 4.0 12.0 0.00 0.00 0.00 82 1012.4
20260902225503 79 230 4.0 13.0 0.00 0.00 0.00 81 1012.0
20260902225003 80 231 4.0 13.0 0.00 0.00 0.00 80 1011.9
20260902224524 80 241 4.0 11.0 0.00 0.00 0.00 80 1012.0
20260902224003 80 240 3.0 9.0 0.00 0.00 0.00 79 1012.1
20260902223504 81 233 4.0 10.0 0.00 0.00 0.00 79 1012.2
20260902223003 81 234 4.0 11.0 0.00 0.00 0.00 78 1012.2
20260902222503 82 234 3.0 11.0 0.00 0.00 0.00 78 1012.3
20260902222004 82 229 3.0 9.0 0.00 0.00 0.00 77 1012.3
20260902221524 82 230 2.0 8.0 0.00 0.00 0.00 77 1012.2
20260902221003 82 234 2.0 7.0 0.00 0.00 0.00 77 1012.2
20260902220503 82 238 2.0 7.0 0.00 0.00 0.00 77 1011.9
20260902220003 83 217 2.0 7.0 0.00 0.00 0.00 77 1011.8
20260902215503 83 196 2.0 5.0 0.00 0.00 0.00 77 1011.8
20260902215024 83 190 2.0 5.0 0.00 0.00 0.00 76 1011.7
20260902214504 83 185 2.0 5.0 0.00 0.00 0.00 75 1011.5
20260902214024 83 190 2.0 5.0 0.00 0.00 0.00 75 1011.4
20260902213503 83 202 2.0 5.0 0.00 0.00 0.00 75 1011.4
20260902213003 83 200 2.0 6.0 0.00 0.00 0.00 75 1011.5
20260902212524 82 201 2.0 7.0 0.00 0.00 0.00 76 1011.8
20260902212003 82 204 2.0 7.0 0.00 0.00 0.00 77 1012.0
20260902211503 82 211 2.0 5.0 0.00 0.00 0.00 77 1012.2
20260902211003 81 233 1.0 5.0 0.00 0.00 0.00 78 1012.5
20260902210524 81 250 1.0 3.0 0.00 0.00 0.00 78 1012.5
20260902210003 81 250 1.0 5.0 0.00 0.00 0.00 78 1012.7
20260902205524 81 250 1.0 5.0 0.00 0.00 0.00 78 1012.7
20260902205024 81 240 2.0 8.0 0.00 0.00 0.00 77 1012.8
20260902204503 81 233 3.0 9.0 0.00 0.00 0.00 77 1013.0
20260902204003 81 222 4.0 9.0 0.00 0.00 0.00 76 1013.0
20260902203503 82 213 3.0 9.0 0.00 0.00 0.00 75 1013.3
20260902203003 82 220 3.0 7.0 0.00 0.00 0.00 75 1013.3
20260902202503 82 223 3.0 10.0 0.00 0.00 0.00 75 1013.5
20260902202024 82 217 3.0 10.0 0.00 0.00 0.00 75 1013.4
20260902201503 82 224 3.0 10.0 0.00 0.00 0.00 74 1013.5
20260902201003 82 230 4.0 12.0 0.00 0.00 0.00 75 1013.6
20260902200503 82 229 5.0 13.0 0.00 0.00 0.00 74 1013.9
20260902200024 82 238 5.0 14.0 0.00 0.00 0.00 73 1014.1
20260902195503 83 232 6.0 14.0 0.00 0.00 0.00 72 1014.4
20260902195003 83 231 6.0 14.0 0.00 0.00 0.00 72 1014.4
20260902194503 84 236 5.0 14.0 0.00 0.00 0.00 70 1014.3
20260902194003 84 227 5.0 13.0 0.00 0.00 0.00 70 1014.1
20260902193503 84 236 6.0 16.0 0.00 0.00 0.00 69 1014.2
20260902193003 85 241 5.0 16.0 0.00 0.00 0.00 68 1014.3
20260902192503 85 234 4.0 12.0 0.00 0.00 0.00 70 1014.0
20260902192004 84 237 4.0 12.0 0.00 0.00 0.00 71 1014.0
20260902191503 84 235 4.0 13.0 0.00 0.00 0.00 72 1014.2
20260902191003 84 228 5.0 13.0 0.00 0.00 0.00 70 1014.4
20260902190503 84 214 4.0 13.0 0.00 0.00 0.00 70 1014.4
20260902190003 84 221 4.0 14.0 0.00 0.00 0.00 72 1014.3
20260902185503 84 224 6.0 15.0 0.00 0.00 0.00 70 1014.3
20260902185003 84 217 5.0 15.0 0.00 0.00 0.00 71 1014.3
20260902184524 84 228 5.0 15.0 0.00 0.00 0.00 69 1014.3
20260902184003 84 235 4.0 14.0 0.00 0.00 0.00 69 1014.3
20260902183524 84 239 5.0 13.0 0.00 0.00 0.00 71 1014.2
20260902183003 84 237 5.0 13.0 0.00 0.00 0.00 70 1014.2
20260902182503 83 214 4.0 13.0 0.00 0.00 0.00 71 1014.2
20260902182004 83 203 5.0 13.0 0.00 0.00 0.00 70 1014.2
20260902181503 83 205 4.0 14.0 0.00 0.00 0.00 71 1014.3
20260902181003 83 211 4.0 14.0 0.00 0.00 0.00 72 1014.3
20260902180524 82 220 4.0 11.0 0.00 0.00 0.00 73 1014.2
20260902180006 82 216 5.0 11.0 0.00 0.00 0.00 74 1014.3
20260902175524 81 200 4.0 11.0 0.00 0.00 0.00 74 1014.3
20260902175024 81 196 4.0 9.0 0.00 0.00 0.00 76 1014.5
20260902174503 80 187 4.0 8.0 0.00 0.00 0.00 78 1014.6
20260902174003 79 182 3.0 8.0 0.00 0.00 0.00 80 1014.7
20260902173503 79 183 3.0 7.0 0.00 0.00 0.00 80 1014.7
20260902173003 78 188 2.0 6.0 0.00 0.00 0.00 82 1014.8
20260902172503 78 246 1.0 3.0 0.00 0.00 0.00 86 1015.2
20260902172004 77 247 1.0 3.0 0.00 0.00 0.00 84 1015.1
20260902171524 77 251 0.0 3.0 0.00 0.00 0.00 83 1015.3
20260902171003 77 254 1.0 3.0 0.00 0.00 0.00 83 1015.3
20260902170503 77 260 1.0 6.0 0.00 0.00 0.00 81 1015.4
20260902170004 77 269 2.0 6.0 0.00 0.00 0.00 81 1015.9
20260902165524 77 251 2.0 6.0 0.00 0.00 0.00 81 1016.1
20260902165024 77 206 2.0 4.0 0.00 0.00 0.00 81 1016.0
20260902164503 77 198 2.0 5.0 0.00 0.00 0.00 81 1015.2
20260902164003 78 195 1.0 7.0 0.00 0.00 0.00 80 1014.9
20260902163503 78 194 1.0 7.0 0.00 0.00 0.00 80 1015.2
20260902163003 78 223 3.0 12.0 0.00 0.00 0.00 78 1014.7
20260902162504 78 228 4.0 12.0 0.00 0.00 0.00 77 1014.9
20260902162004 79 226 4.0 11.0 0.00 0.00 0.00 75 1014.9
20260902161525 79 228 3.0 7.0 0.00 0.00 0.00 75 1014.9
20260902161003 80 232 3.0 8.0 0.00 0.00 0.00 75 1014.9
20260902160503 80 221 3.0 8.0 0.00 0.00 0.00 76 1015.2
20260902160024 79 233 3.0 10.0 0.00 0.00 0.00 76 1015.2
20260902155503 79 233 3.0 10.0 0.00 0.00 0.00 75 1015.2
20260902155003 79 213 3.0 9.0 0.00 0.00 0.00 76 1015.1
20260902154503 79 215 3.0 12.0 0.00 0.00 0.00 75 1015.1
20260902154003 79 210 4.0 12.0 0.00 0.00 0.00 75 1015.1
20260902153524 79 197 4.0 11.0 0.00 0.00 0.00 76 1015.1
20260902153024 79 199 4.0 11.0 0.00 0.00 0.00 75 1015.0
20260902152503 79 215 3.0 9.0 0.00 0.00 0.00 76 1015.5
20260902152003 79 210 3.0 12.0 0.00 0.00 0.00 77 1015.5
20260902151503 78 210 3.0 12.0 0.00 0.00 0.00 78 1015.6
20260902151003 78 195 4.0 9.0 0.00 0.00 0.00 79 1015.7
20260902150503 78 179 3.0 9.0 0.00 0.00 0.00 79 1015.7
20260902150003 77 170 4.0 9.0 0.00 0.00 0.00 80 1015.8
20260902145503 77 160 3.0 9.0 0.00 0.00 0.00 80 1015.8
20260902145003 76 151 3.0 8.0 0.00 0.00 0.00 81 1016.1
20260902144503 76 141 3.0 6.0 0.00 0.00 0.00 81 1016.1
20260902144024 75 139 3.0 6.0 0.00 0.00 0.00 82 1015.9
20260902143524 75 156 3.0 8.0 0.00 0.00 0.00 81 1016.0
20260902143003 75 145 3.0 8.0 0.00 0.00 0.00 82 1016.3
20260902142503 75 133 2.0 7.0 0.00 0.00 0.00 83 1016.3
20260902142003 74 146 2.0 7.0 0.00 0.00 0.00 84 1016.1
20260902141503 74 142 2.0 7.0 0.00 0.00 0.00 85 1016.3
20260902141003 73 141 2.0 4.0 0.00 0.00 0.00 85 1016.2
20260902140503 73 141 2.0 4.0 0.00 0.00 0.00 85 1016.4
20260902140003 72 122 2.0 4.0 0.00 0.00 0.00 86 1016.3
20260902135524 72 102 1.0 4.0 0.00 0.00 0.00 86 1016.3
20260902135003 72 93 1.0 4.0 0.00 0.00 0.00 86 1016.3
20260902134503 72 93 1.0 3.0 0.00 0.00 0.00 86 1016.3
20260902134003 72 93 1.0 2.0 0.00 0.00 0.00 86 1016.2
20260902133524 72 93 1.0 3.0 0.00 0.00 0.00 85 1016.3
20260902133024 72 93 1.0 3.0 0.00 0.00 0.00 85 1016.2
20260902132503 72 79 1.0 4.0 0.00 0.00 0.00 85 1016.3
20260902132003 72 70 1.0 4.0 0.00 0.00 0.00 84 1016.2
20260902131503 72 55 0.0 3.0 0.00 0.00 0.00 84 1016.2
20260902131003 72 55 0.0 2.0 0.00 0.00 0.00 84 1016.3
20260902130503 72 55 0.0 3.0 0.00 0.00 0.00 84 1016.5
20260902130003 72 55 1.0 4.0 0.00 0.00 0.00 84 1016.7
20260902125503 72 56 1.0 4.0 0.00 0.00 0.00 84 1016.6
20260902125003 72 23 2.0 8.0 0.00 0.00 0.00 83 1016.7
20260902124503 73 353 4.0 14.0 0.00 0.00 0.00 84 1016.8
20260902124003 73 334 4.0 14.0 0.00 0.00 0.00 84 1017.1
20260902123503 74 290 3.0 11.0 0.00 0.00 0.00 86 1017.1
20260902123003 74 239 2.0 7.0 0.00 0.00 0.00 87 1016.7
20260902122503 74 234 2.0 7.0 0.00 0.00 0.00 88 1016.1
20260902122003 74 222 3.0 8.0 0.00 0.00 0.00 89 1015.3
20260902121503 74 213 3.0 8.0 0.00 0.00 0.00 90 1015.2
20260902121003 73 198 3.0 9.0 0.00 0.00 0.00 91 1014.9
20260902120503 73 186 3.0 9.0 0.00 0.00 0.00 92 1014.9
20260902120024 72 190 2.0 9.0 0.00 0.00 0.00 93 1015.0
20260902115524 72 199 1.0 6.0 0.00 0.00 0.00 93 1014.6
20260902115024 71 0 0.0 0.0 0.00 0.00 0.00 93 1014.5
20260902114524 71 0 0.0 0.0 0.00 0.00 0.00 92 1014.5
20260902114003 71 0 0.0 0.0 0.00 0.00 0.00 92 1014.1
20260902113503 71 0 0.0 0.0 0.00 0.00 0.00 92 1014.0
20260902113003 71 0 0.0 0.0 0.00 0.00 0.00 92 1014.1
20260902112503 71 0 0.0 0.0 0.00 0.00 0.00 92 1014.4
20260902112003 71 0 0.0 0.0 0.00 0.00 0.00 92 1014.4
20260902111503 71 0 0.0 0.0 0.00 0.00 0.00 92 1014.4
20260902111024 71 0 0.0 0.0 0.00 0.00 0.00 92 1014.1
20260902110503 71 0 0.0 0.0 0.00 0.00 0.00 92 1013.8
20260902110005 71 0 0.0 0.0 0.00 0.00 0.00 93 1013.8
20260902105503 71 0 0.0 0.0 0.00 0.00 0.00 92 1013.7
20260902105003 71 0 0.0 0.0 0.00 0.00 0.00 92 1013.7
20260902104503 71 0 0.0 0.0 0.00 0.00 0.00 92 1013.6
20260902104024 71 0 0.0 0.0 0.00 0.00 0.00 92 1013.7
20260902103524 71 0 0.0 0.0 0.00 0.00 0.00 92 1013.6
20260902103003 71 0 0.0 0.0 0.00 0.00 0.00 92 1013.8
20260902102503 71 0 0.0 0.0 0.00 0.00 0.00 92 1014.0
20260902102003 71 0 0.0 0.0 0.00 0.00 0.00 92 1013.7
20260902101503 71 0 0.0 0.0 0.00 0.00 0.00 92 1013.7
20260902101003 71 0 0.0 0.0 0.00 0.00 0.00 92 1013.5
20260902100503 71 0 0.0 0.0 0.00 0.00 0.00 92 1013.6
20260902100024 71 0 0.0 0.0 0.00 0.00 0.00 92 1013.5
20260902095503 71 0 0.0 0.0 0.00 0.00 0.00 92 1013.8
20260902095024 71 0 0.0 0.0 0.00 0.00 0.00 92 1014.1
20260902094503 71 0 0.0 0.0 0.00 0.00 0.00 92 1014.0
20260902094024 71 0 0.0 0.0 0.00 0.00 0.00 92 1014.0
20260902093524 72 0 0.0 0.0 0.00 0.00 0.00 92 1013.9
20260902093003 72 0 0.0 0.0 0.00 0.00 0.00 92 1014.1
20260902092503 72 0 0.0 0.0 0.00 0.00 0.00 92 1014.2
20260902092003 72 188 0.0 3.0 0.00 0.00 0.00 92 1014.3
20260902091503 72 188 0.0 3.0 0.00 0.00 0.00 92 1014.4
20260902091003 72 188 0.0 2.0 0.00 0.00 0.00 92 1014.3
20260902090503 72 188 0.0 2.0 0.00 0.00 0.00 93 1014.6
20260902090004 72 188 0.0 2.0 0.00 0.00 0.00 93 1014.4
20260902085503 72 0 0.0 0.0 0.00 0.00 0.00 93 1014.5
20260902085003 72 189 0.0 2.0 0.00 0.00 0.00 93 1014.6
20260902084524 72 189 0.0 3.0 0.00 0.00 0.00 93 1014.6
20260902084003 71 189 0.0 3.0 0.00 0.00 0.00 93 1014.6
20260902083503 71 0 0.0 0.0 0.00 0.00 0.00 93 1014.6
20260902083003 71 0 0.0 0.0 0.00 0.00 0.00 93 1014.7
20260902082503 71 0 0.0 0.0 0.00 0.00 0.00 93 1014.7
20260902082003 71 0 0.0 0.0 0.00 0.00 0.00 93 1014.9
20260902081503 72 0 0.0 0.0 0.00 0.00 0.00 93 1015.0
20260902081003 72 0 0.0 0.0 0.00 0.00 0.00 93 1015.0
20260902080503 71 0 0.0 0.0 0.00 0.00 0.00 93 1015.0
20260902080003 71 0 0.0 0.0 0.00 0.00 0.00 93 1015.1
20260902075503 71 0 0.0 0.0 0.00 0.00 0.00 93 1015.2
20260902075003 71 0 0.0 0.0 0.00 0.00 0.00 93 1015.2
20260902074503 71 0 0.0 0.0 0.00 0.00 0.00 93 1015.2
20260902074003 71 0 0.0 0.0 0.00 0.00 0.00 93 1015.1
20260902073503 71 0 0.0 0.0 0.00 0.00 0.00 93 1015.0
20260902073003 71 0 0.0 0.0 0.00 0.00 0.00 93 1015.0
20260902072503 71 0 0.0 0.0 0.00 0.00 0.00 93 1015.1
20260902072024 71 0 0.0 0.0 0.00 0.00 0.00 93 1015.1
20260902071503 71 0 0.0 0.0 0.00 0.00 0.00 93 1015.2
20260902071003 71 0 0.0 0.0 0.00 0.00 0.00 93 1015.3
20260902070503 71 0 0.0 0.0 0.00 0.00 0.00 93 1015.3
20260902070004 71 0 0.0 0.0 0.00 0.00 0.00 93 1015.3
20260902065503 71 0 0.0 0.0 0.00 0.00 0.00 93 1015.5
20260902065003 71 0 0.0 0.0 0.00 0.00 0.00 93 1015.3
20260902064524 71 0 0.0 0.0 0.00 0.00 0.00 93 1015.4
20260902064003 71 188 0.0 1.0 0.00 0.00 0.00 93 1015.3
20260902063503 70 189 0.0 3.0 0.00 0.00 0.00 93 1015.4
20260902063024 70 189 1.0 3.0 0.00 0.00 0.00 93 1015.2
20260902062524 70 189 1.0 3.0 0.00 0.00 0.00 93 1015.2
20260902062003 70 189 0.0 2.0 0.00 0.00 0.00 92 1015.4
20260902061524 70 189 0.0 2.0 0.00 0.00 0.00 92 1015.4
20260902061024 70 0 0.0 0.0 0.00 0.00 0.00 93 1015.5
20260902060503 70 0 0.0 0.0 0.00 0.00 0.00 93 1015.5
20260902060024 70 0 0.0 0.0 0.00 0.00 0.00 92 1015.4
20260902055503 70 0 0.0 0.0 0.00 0.00 0.00 92 1015.6
20260902055024 70 0 0.0 0.0 0.00 0.00 0.00 92 1015.5
20260902054503 69 0 0.0 0.0 0.00 0.00 0.00 92 1015.6
20260902054003 69 0 0.0 0.0 0.00 0.00 0.00 92 1015.5
20260902053524 69 0 0.0 0.0 0.00 0.00 0.00 92 1015.4
20260902053024 69 0 0.0 0.0 0.00 0.00 0.00 92 1015.3
20260902052503 69 0 0.0 0.0 0.00 0.00 0.00 92 1015.3
20260902052003 69 0 0.0 0.0 0.00 0.00 0.00 92 1015.3
20260902051503 69 0 0.0 0.0 0.00 0.00 0.00 92 1015.4
20260902051024 69 0 0.0 0.0 0.00 0.00 0.00 92 1015.4
20260902050503 69 0 0.0 0.0 0.00 0.00 0.00 92 1015.3
20260902050005 69 0 0.0 0.0 0.00 0.00 0.00 91 1015.3
20260902045524 69 0 0.0 0.0 0.00 0.00 0.00 92 1015.2
20260902045003 69 0 0.0 0.0 0.00 0.00 0.00 91 1015.3
20260902044524 69 0 0.0 0.0 0.00 0.00 0.00 91 1015.3
20260902044003 70 0 0.0 0.0 0.00 0.00 0.00 91 1015.4
20260902043524 69 0 0.0 0.0 0.00 0.00 0.00 91 1015.4
20260902043003 70 0 0.0 0.0 0.00 0.00 0.00 91 1015.3
20260902042503 70 0 0.0 0.0 0.00 0.00 0.00 91 1015.3
20260902042003 70 0 0.0 0.0 0.00 0.00 0.00 91 1015.1
20260902041503 70 0 0.0 0.0 0.00 0.00 0.00 91 1015.3
20260902041024 70 0 0.0 0.0 0.00 0.00 0.00 91 1015.2
20260902040503 70 0 0.0 0.0 0.00 0.00 0.00 91 1015.2
20260902040003 70 0 0.0 0.0 0.00 0.00 0.00 91 1015.2
20260902035524 70 0 0.0 0.0 0.00 0.01 0.00 91 1015.0
20260902035003 70 0 0.0 0.0 0.00 0.01 0.00 91 1015.0
20260902034503 71 0 0.0 0.0 0.00 0.01 0.00 91 1015.0
20260902034003 71 0 0.0 0.0 0.00 0.01 0.00 91 1015.0
20260902033503 70 0 0.0 0.0 0.00 0.01 0.00 91 1015.0
20260902033003 70 0 0.0 0.0 0.00 0.01 0.00 91 1015.0
20260902032503 71 0 0.0 0.0 0.00 0.01 0.00 91 1014.9
20260902032003 71 0 0.0 0.0 0.00 0.01 0.00 91 1015.0
20260902031503 71 0 0.0 0.0 0.00 0.01 0.00 91 1014.9
20260902031003 71 0 0.0 0.0 0.00 0.01 0.00 90 1015.0
20260902030503 71 0 0.0 0.0 0.00 0.01 0.00 90 1015.0
20260902030003 71 0 0.0 0.0 0.00 0.01 0.00 91 1015.0
20260902025503 71 0 0.0 0.0 0.00 0.01 0.00 90 1015.0
20260902025003 71 0 0.0 0.0 0.00 0.01 0.00 90 1015.0
20260902024524 71 0 0.0 0.0 0.00 0.01 0.00 90 1014.9
20260902024003 71 0 0.0 0.0 0.00 0.01 0.00 90 1014.9
20260902023503 71 0 0.0 0.0 0.00 0.01 0.00 90 1015.0
20260902023003 71 0 0.0 0.0 0.00 0.01 0.00 90 1015.0
20260902022503 71 0 0.0 0.0 0.00 0.01 0.00 89 1015.0
20260902022003 72 0 0.0 0.0 0.00 0.01 0.00 89 1015.0
20260902021503 72 0 0.0 0.0 0.00 0.01 0.00 89 1015.2
20260902021003 72 0 0.0 0.0 0.00 0.01 0.00 89 1015.1
20260902020503 72 0 0.0 0.0 0.00 0.01 0.00 89 1015.2
20260902020024 72 0 0.0 0.0 0.00 0.01 0.00 89 1015.2
20260902015524 72 0 0.0 0.0 0.00 0.01 0.00 88 1015.3
20260902015003 72 0 0.0 0.0 0.00 0.01 0.00 88 1015.0
20260902014503 73 0 0.0 0.0 0.00 0.01 0.00 88 1015.1
20260902014003 73 0 0.0 0.0 0.00 0.01 0.00 88 1015.2
20260902013503 73 0 0.0 0.0 0.00 0.01 0.00 87 1015.1
20260902013024 73 0 0.0 0.0 0.00 0.01 0.00 87 1015.1
20260902012503 73 0 0.0 0.0 0.00 0.01 0.00 87 1015.1
20260902012003 73 0 0.0 0.0 0.00 0.01 0.00 87 1015.1
20260902011503 74 0 0.0 0.0 0.00 0.01 0.00 86 1015.1
20260902011003 74 0 0.0 0.0 0.00 0.01 0.00 86 1015.0
20260902010503 74 0 0.0 0.0 0.00 0.01 0.00 86 1014.9
20260902010024 74 0 0.0 0.0 0.00 0.01 0.00 86 1014.8
20260902005503 74 0 0.0 0.0 0.00 0.01 0.00 85 1014.7
20260902005003 75 0 0.0 0.0 0.00 0.01 0.00 85 1014.7
20260902004503 75 0 0.0 0.0 0.00 0.01 0.00 84 1014.6
20260902004003 75 0 0.0 0.0 0.00 0.01 0.00 84 1014.6
20260902003524 75 0 0.0 0.0 0.00 0.01 0.00 84 1014.6
20260902003003 76 0 0.0 0.0 0.00 0.01 0.00 83 1014.4
20260902002503 76 0 0.0 0.0 0.00 0.01 0.00 83 1014.4
20260902002003 76 0 0.0 0.0 0.00 0.01 0.00 82 1014.3
20260902001503 76 190 0.0 2.0 0.00 0.01 0.00 82 1014.3
20260902001003 77 190 0.0 2.0 0.00 0.01 0.00 82 1014.4
20260902000503 77 190 0.0 2.0 0.00 0.01 0.00 81 1014.3
20260902000003 77 190 0.0 2.0 0.00 0.01 0.00 81 1014.1
20260901235503 77 190 1.0 4.0 0.00 0.01 0.00 80 1014.2
20260901235003 77 189 1.0 5.0 0.00 0.01 0.00 80 1014.1
20260901234524 78 195 2.0 5.0 0.00 0.01 0.00 80 1014.1
20260901234003 78 201 1.0 4.0 0.00 0.01 0.00 79 1014.2
20260901233503 79 199 1.0 3.0 0.00 0.01 0.00 79 1014.1
20260901233003 79 198 1.0 3.0 0.00 0.01 0.00 78 1014.2
20260901232524 79 198 1.0 3.0 0.00 0.01 0.00 77 1014.2
20260901232003 80 199 1.0 3.0 0.00 0.01 0.00 77 1014.4
20260901231503 80 221 1.0 4.0 0.00 0.01 0.00 76 1014.4
20260901231003 80 245 2.0 4.0 0.00 0.01 0.00 76 1014.4